Location: Alladorf
(49.9620°N, 11.3790°E)
Time: 21:29:00
(UTC+00:00)

Cosmos 1743 Rocket - Pass Details

Date: 29 November 2020
Orbit: 603 x 634 km, 82.6° (Epoch: 25 January)

Event Time Altitude Azimuth Distance (km) Brightness Sun altitude
Rises 04:54:35 0° 189° (S) 2,901 7.1 -17.6°
Reaches altitude 10° 04:56:48 10° 190° (S) 2,003 6.2 -17.3°
Maximum altitude 05:01:15 86° 277° (W) 641 3.5 -16.6°
Drops below altitude 10° 05:05:46 10° 9° (N) 2,030 6.1 -15.9°
Sets 05:08:02 0° 10° (N) 2,944 7.0 -15.5°
